Preview of NWS' New Version of Forecast
This preview is not operational and should not be used for support decisions.

Regional Weather Roundup (RWR)

Issued by National Weather Service (NWS)

                            
000
ASUS45 KABQ 200610
RWRNM 
NEW MEXICO REGIONAL WEATHER ROUNDUP
NATIONAL WEATHER SERVICE ALBUQUERQUE NM
1200 AM MDT THU JUN 20 2019

NOTE: "FAIR" MEANS FEW OR NO CLOUDS BELOW 12,000 FEET AGL WITH NO
       SIGNIFICANT WEATHER OR OBSTRUCTIONS TO VISION.

      THIS PRODUCT IS RELEASED AS TWO VERSIONS.  ONE VERSION NEAR
      THE TOP OF THE HOUR CONTAINING PRELIMINARY DATA FROM ALBUQUERQUE
      AND OTHER STATIONS.  A FINAL VERSION WITH ADDITIONAL DATA IS 
      ISSUED ABOUT 10 MINUTES AFTER THE HOUR.
 
NMZ501-503-504-510>518-200700-
NORTHWEST PLATEAU/NORTHCENTRAL MOUNTAINS
  
CITY           SKY/WX    TMP DP  RH WIND       PRES   REMARKS
FARMINGTON     FAIR      64  28  25 CALM      29.98S                  
6HR MIN TEMP:  59; 6HR MAX TEMP:  88;                                

LOS ALAMOS       N/A     67  31  26 SW8       30.15S                  
SANTA FE       FAIR      62  29  28 N7        30.06S                  
6HR MIN TEMP:  61; 6HR MAX TEMP:  85;                                

TAOS           FAIR      51  31  46 NE6       30.14S                  
ANGEL FIRE       N/A     58  30  35 W8        30.19F                  

$$
NMZ402-403-502-505>509-200700-
WESTCENTRAL MOUNTAINS/SOUTHWEST MOUNTAINS
  
CITY           SKY/WX    TMP DP  RH WIND       PRES   REMARKS
GALLUP         FAIR      56  29  35 CALM      30.13R                  
6HR MIN TEMP:  56; 6HR MAX TEMP:  85;                                

GRANTS         FAIR      65  26  22 CALM      30.14S                  
SILVER CITY    FAIR      63  18  17 N10       30.10S                  

$$
NMZ407-409-411-412-200700-
SOUTHERN DESERTS
  
CITY           SKY/WX    TMP DP  RH WIND       PRES   REMARKS
DEMING         FAIR      72  21  14 W8        30.01R                  
6HR MIN TEMP:  72; 6HR MAX TEMP:  93;                                

LAS CRUCES     FAIR      74  21  13 W8        30.00S                  
HOLLOMAN AFB   FAIR      79  22  12 SE7       29.97R                  
ALAMOGORDO     FAIR      75  19  12 S9        29.97S                  
T OR C         FAIR      81  14   8 W10       29.99S                  
6HR MIN TEMP:  78; 6HR MAX TEMP:  94;                                


$$
NMZ519>523-200700-
CENTRAL VALLEYS/CENTRAL HIGHLANDS
  
CITY           SKY/WX    TMP DP  RH WIND       PRES   REMARKS
ALBUQUERQUE    FAIR      73  31  21 CALM      30.00S                  
6HR MIN TEMP:  73; 6HR MAX TEMP:  89;                                

DOUBLE EAGLE   FAIR      69  30  23 NW8       30.04S                  
MORIARTY ARPT  FAIR      62  32  32 CALM      30.08S                  
6HR MIN TEMP:  59; 6HR MAX TEMP:  87;                                

CLINES CORNERS FAIR      59  31  34 W6        30.13S                  
6HR MIN TEMP:  58; 6HR MAX TEMP:  80;                                

BELEN          FAIR      71  23  16 NW8       30.00S                  
6HR MIN TEMP:  69; 6HR MAX TEMP:  91;                                

SOCORRO        FAIR      80  22  12 W12       29.97S                  
6HR MIN TEMP:  80; 6HR MAX TEMP:  92;                                


$$
NMZ524>526-539-540-200700-
SOUTHCENTRAL MOUNTAINS
  
CITY           SKY/WX    TMP DP  RH WIND       PRES   REMARKS
RUIDOSO        FAIR      70  16  12 SW17      30.15S                  

$$
NMZ527>531-200700-
NORTHEAST HIGHLANDS/NORTHEAST PLAINS
  
CITY           SKY/WX    TMP DP  RH WIND       PRES   REMARKS
LAS VEGAS      FAIR      64  30  27 W9        30.09S                  
6HR MIN TEMP:  63; 6HR MAX TEMP:  81;                                

RATON          FAIR      54  38  54 NW3       30.00S                  
6HR MIN TEMP:  54; 6HR MAX TEMP:  82;                                

CLAYTON        FAIR      64  52  64 SW13      29.92F                  
6HR MIN TEMP:  62; 6HR MAX TEMP:  81;                                


$$
NMZ532>537-200700-
EASTCENTRAL PLAINS
  
CITY           SKY/WX    TMP DP  RH WIND       PRES   REMARKS
SANTA ROSA     FAIR      70  36  28 CALM      29.93R                  
TUCUMCARI      FAIR      68  48  48 CALM      29.84S                  
6HR MIN TEMP:  66; 6HR MAX TEMP:  91;                                

CANNON AFB     FAIR      70  54  57 CALM      29.92S                  
6HR MIN TEMP:  69; 6HR MAX TEMP:  92;                                

CLOVIS AIRPORT FAIR      67  57  70 SE7       29.91F                  

$$
NMZ028-029-538-200700-
SOUTHEAST PLAINS
  
CITY           SKY/WX    TMP DP  RH WIND       PRES   REMARKS
ROSWELL        FAIR      79  28  15 W10       29.86S                  
6HR MIN TEMP:  79; 6HR MAX TEMP: 101;                                

ARTESIA        FAIR      81  28  15 W17       29.87F                  
CARLSBAD       FAIR      82  23  11 W16       29.84S                  
6HR MIN TEMP:  78; 6HR MAX TEMP:  99;                                



$$